Weather History for KTTF - April, 2014

Change the Weather History Date:

Sunday, April 20, 2014

  Actual Average Record
Temperature  
Mean Temperature 51 °F -  
Max Temperature 69 °F 62 °F 87 °F (1985)
Min Temperature 33 °F 42 °F 25 °F (1956)
Degree Days  
Heating Degree Days 14    
Growing Degree Days 1 (Base 50)    
Moisture  
Dew Point 35 °F    
Average Humidity 58    
Maximum Humidity 87    
Minimum Humidity 28    
Precipitation  
Precipitation 0.00 in - - ()
Sea Level Pressure  
Sea Level Pressure 30.24 in    
Wind  
Wind Speed 3 mph (ESE)    
Max Wind Speed 9 mph    
Max Gust Speed -    
Visibility 10 miles    
Events      
Averages and records for this station are not official NWS values.
T = Trace of Precipitation, MM = Missing Value Source: NWS Daily Summary

Daily Weather History Graph

Daily Weather History Graph

Search for Another Location

Airport or City:

Trip Planner

Search our weather history database for the weather conditions in past years. The results will help you decide how hot, cold, wet, or windy it might be!

Date:

Astronomy

Apr. 20, 2014 Rise Set
Actual Time 6:45 AM EDT 8:20 PM EDT
Civil Twilight 6:16 AM EDT 8:49 PM EDT
Nautical Twilight 5:40 AM EDT 9:25 PM EDT
Astronomical Twilight 5:03 AM EDT 10:03 PM EDT
Moon 1:01 AM EDT (4/20) 11:03 AM EDT (4/20)
Length of Visible Light 14h 33m
Length of Day
13h 34m
Waning Gibbous, 69% of the Moon is Illuminated
Apr 20
Waning Gibbous
Apr 22
Last Quarter
Apr 29
New
May 6
First Quarter
May 14
Full

Hourly Weather History & Observations

Time (EDT) Temp. Windchill Dew Point Humidity Pressure Visibility Wind Dir Wind Speed Gust Speed Precip Events Conditions
12:14 AM 37.4 °F - 33.8 °F 87% 30.34 in 10.0 mi Calm Calm - N/A   Clear
12:34 AM 37.4 °F - 32.0 °F 81% 30.34 in 10.0 mi Calm Calm - N/A   Clear
12:54 AM 37.4 °F 34.9 °F 32.0 °F 81% 30.34 in 10.0 mi NE 3.5 mph - N/A   Clear
1:14 AM 39.2 °F 35.9 °F 30.2 °F 70% 30.34 in 10.0 mi NE 4.6 mph - N/A   Clear
1:34 AM 39.2 °F - 30.2 °F 70% 30.33 in 10.0 mi Calm Calm - N/A   Clear
1:54 AM 39.2 °F 37.0 °F 30.2 °F 70% 30.33 in 10.0 mi NNE 3.5 mph - N/A   Clear
2:14 AM 37.4 °F 33.8 °F 30.2 °F 75% 30.32 in 10.0 mi NE 4.6 mph - N/A   Clear
2:34 AM 37.4 °F 34.9 °F 30.2 °F 75% 30.32 in 10.0 mi ENE 3.5 mph - N/A   Clear
2:55 AM 37.4 °F 33.8 °F 30.2 °F 75% 30.31 in 10.0 mi East 4.6 mph - N/A   Clear
3:15 AM 37.4 °F 33.8 °F 30.2 °F 75% 30.31 in 10.0 mi East 4.6 mph - N/A   Clear
3:35 AM 39.2 °F 35.9 °F 30.2 °F 70% 30.30 in 10.0 mi East 4.6 mph - N/A   Clear
3:55 AM 41.0 °F 38.0 °F 30.2 °F 65% 30.30 in 10.0 mi East 4.6 mph - N/A   Clear
4:15 AM 41.0 °F 38.0 °F 32.0 °F 70% 30.31 in 10.0 mi East 4.6 mph - N/A   Clear
4:35 AM 39.2 °F - 30.2 °F 70% 30.31 in 10.0 mi Calm Calm - N/A   Clear
4:55 AM 39.2 °F 37.0 °F 30.2 °F 70% 30.31 in 10.0 mi ENE 3.5 mph - N/A   Clear
5:15 AM 39.2 °F 37.0 °F 30.2 °F 70% 30.31 in 10.0 mi ENE 3.5 mph - N/A   Clear
5:35 AM 35.6 °F - 30.2 °F 81% 30.30 in 10.0 mi Calm Calm - N/A   Clear
5:55 AM 35.6 °F 32.8 °F 32.0 °F 87% 30.30 in 10.0 mi ENE 3.5 mph - N/A   Clear
6:16 AM 37.4 °F - 30.2 °F 75% 30.30 in 10.0 mi Calm Calm - N/A   Clear
6:36 AM 37.4 °F - 30.2 °F 75% 30.30 in 10.0 mi Calm Calm - N/A   Clear
6:56 AM 33.8 °F - 30.2 °F 87% 30.30 in 10.0 mi Calm Calm - N/A   Clear
7:16 AM 35.6 °F - 32.0 °F 87% 30.30 in 10.0 mi Calm Calm - N/A   Clear
7:36 AM 37.4 °F - 33.8 °F 87% 30.30 in 10.0 mi Calm Calm - N/A   Clear
7:56 AM 37.4 °F - 33.8 °F 87% 30.30 in 10.0 mi Calm Calm - N/A   Clear
8:16 AM 42.8 °F - 35.6 °F 76% 30.30 in 10.0 mi Calm Calm - N/A   Clear
8:31 AM 44.6 °F 43.1 °F 37.4 °F 76% 30.30 in 10.0 mi East 3.5 mph - N/A   Clear
8:51 AM 46.4 °F 44.3 °F 37.4 °F 71% 30.30 in 10.0 mi ESE 4.6 mph - N/A   Clear
9:11 AM 48.2 °F - 39.2 °F 71% 30.30 in 10.0 mi SE 5.8 mph - N/A   Clear
9:31 AM 48.2 °F - 39.2 °F 71% 30.29 in 10.0 mi ESE 3.5 mph - N/A   Clear
9:52 AM 51.8 °F - 37.4 °F 58% 30.29 in 10.0 mi SE 3.5 mph - N/A   Clear
10:12 AM 53.6 °F - 37.4 °F 54% 30.28 in 10.0 mi South 5.8 mph - N/A   Clear
10:32 AM 55.4 °F - 37.4 °F 51% 30.28 in 10.0 mi ESE 4.6 mph - N/A   Clear
10:52 AM 57.2 °F - 37.4 °F 48% 30.28 in 10.0 mi South 6.9 mph - N/A   Clear
11:12 AM 57.2 °F - 37.4 °F 48% 30.28 in 10.0 mi South 3.5 mph - N/A   Clear
11:32 AM 59.0 °F - 35.6 °F 42% 30.27 in 10.0 mi South 4.6 mph - N/A   Clear
11:52 AM 60.8 °F - 37.4 °F 42% 30.26 in 10.0 mi SE 5.8 mph - N/A   Clear
12:12 PM 60.8 °F - 39.2 °F 45% 30.25 in 10.0 mi ESE 6.9 mph - N/A   Clear
12:32 PM 62.6 °F - 39.2 °F 42% 30.24 in 10.0 mi SE 5.8 mph - N/A   Clear
12:53 PM 62.6 °F - 37.4 °F 39% 30.24 in 10.0 mi Calm Calm - N/A   Clear
1:13 PM 64.4 °F - 35.6 °F 34% 30.23 in 10.0 mi Calm Calm - N/A   Clear
1:33 PM 64.4 °F - 39.2 °F 40% 30.23 in 10.0 mi ESE 5.8 mph - N/A   Clear
2:13 PM 64.4 °F - 37.4 °F 37% 30.22 in 10.0 mi SSE 6.9 mph - N/A   Clear
2:33 PM 66.2 °F - 39.2 °F 37% 30.21 in 10.0 mi ESE 6.9 mph - N/A   Clear
2:53 PM 66.2 °F - 37.4 °F 35% 30.21 in 10.0 mi SE 3.5 mph - N/A   Clear
3:13 PM 66.2 °F - 37.4 °F 35% 30.20 in 10.0 mi ESE 4.6 mph - N/A   Clear
3:33 PM 68.0 °F - 37.4 °F 33% 30.19 in 10.0 mi ESE 6.9 mph - N/A   Clear
3:53 PM 69.8 °F - 35.6 °F 28% 30.18 in 10.0 mi ESE 6.9 mph - N/A   Clear
4:14 PM 68.0 °F - 35.6 °F 30% 30.17 in 10.0 mi ESE 5.8 mph - N/A   Clear
4:34 PM 68.0 °F - 35.6 °F 30% 30.17 in 10.0 mi East 8.1 mph - N/A   Clear
4:54 PM 66.2 °F - 35.6 °F 32% 30.17 in 10.0 mi ESE 5.8 mph - N/A   Clear
5:14 PM 66.2 °F - 33.8 °F 30% 30.16 in 10.0 mi ESE 8.1 mph - N/A   Clear
5:34 PM 66.2 °F - 35.6 °F 32% 30.16 in 10.0 mi SE 8.1 mph - N/A   Clear
5:54 PM 64.4 °F - 35.6 °F 34% 30.15 in 10.0 mi ESE 5.8 mph - N/A   Clear
6:14 PM 62.6 °F - 35.6 °F 37% 30.15 in 10.0 mi ESE 9.2 mph - N/A   Clear
6:34 PM 62.6 °F - 35.6 °F 37% 30.15 in 10.0 mi SE 8.1 mph - N/A   Clear
7:14 PM 60.8 °F - 35.6 °F 39% 30.13 in 10.0 mi ESE 3.5 mph - N/A   Clear
7:35 PM 57.2 °F - 33.8 °F 41% 30.13 in 10.0 mi SE 8.1 mph - N/A   Clear
7:55 PM 55.4 °F - 35.6 °F 47% 30.13 in 10.0 mi ESE 4.6 mph - N/A   Clear
8:15 PM 53.6 °F - 37.4 °F 54% 30.13 in 10.0 mi ESE 3.5 mph - N/A   Clear
8:35 PM 53.6 °F - 37.4 °F 54% 30.13 in 10.0 mi ESE 3.5 mph - N/A   Clear
8:55 PM 53.6 °F - 37.4 °F 54% 30.13 in 10.0 mi Calm Calm - N/A   Clear
9:15 PM 51.8 °F - 37.4 °F 58% 30.13 in 10.0 mi ESE 3.5 mph - N/A   Clear
9:35 PM 51.8 °F - 37.4 °F 58% 30.13 in 10.0 mi Calm Calm - N/A   Clear
9:55 PM 51.8 °F - 37.4 °F 58% 30.12 in 10.0 mi Calm Calm - N/A   Clear
10:15 PM 51.8 °F - 37.4 °F 58% 30.12 in 10.0 mi Calm Calm - N/A   Clear
10:35 PM 50.0 °F - 37.4 °F 62% 30.12 in 10.0 mi Calm Calm - N/A   Clear
10:56 PM 50.0 °F - 37.4 °F 62% 30.12 in 10.0 mi Calm Calm - N/A   Clear
11:16 PM 48.2 °F - 37.4 °F 66% 30.11 in 10.0 mi ESE 3.5 mph - N/A   Clear
11:36 PM 48.2 °F - 37.4 °F 66% 30.10 in 10.0 mi Calm Calm - N/A   Clear
11:56 PM 48.2 °F - 37.4 °F 66% 30.10 in 10.0 mi Calm Calm - N/A   Clear